User: anonymous   Login
Location: Antichan
(42.9728°N, 0.6667°E)
Time: 13:50:38
(UTC+00:00)
Language:

Cosmos 1703 Rocket - Orbit

View from above orbital plane
View from above orbital plane
View from above satellite
View from above satellite

Ground track
Ground track

The orbit data is extracted from the following two-line orbital elements,

1 16263U 85108B   20294.86798281 +.00000096 +00000-0 +88359-5 0  9999
2 16263 082.5061 048.1341 0018586 285.4644 220.1662 14.83110394885457
Epoch (UTC): 20 October 2020 20:49:53
Eccentricity: 0.0018586
inclination: 82.5061°
perigee height: 606 km
apogee height: 632 km
right ascension of ascending node: 48.1341°
argument of perigee: 285.4644°
revolutions per day: 14.83110394
mean anomaly at epoch: 220.1662°
orbit number at epoch: 88545

The dashed part of the orbit path shows where the satellite is in the earth's shadow,  

DLR